Time,TemperatureF,DewpointF,PressureIn,WindDirection,WindDirectionDegrees,WindSpeedMPH,WindSpeedGustMPH,Humidity,HourlyPrecipIn,Conditions,Clouds,dailyrainin,SoftwareType,DateUTC
2013-05-31 00:00:00,76.9,69.9,29.69,SSE,157,5.0,5.0,79,0.00,,,0.00,Wunderground v.1.15,2013-05-31 05:00:00,
2013-05-31 00:10:00,76.9,70.3,29.70,SSE,160,5.0,11.0,80,0.00,,,0.00,Wunderground v.1.15,2013-05-31 05:10:00,
2013-05-31 00:20:00,77.2,70.5,29.70,SSE,165,8.0,8.0,80,0.00,,,0.00,Wunderground v.1.15,2013-05-31 05:20:00,
2013-05-31 00:30:00,77.3,71.0,29.70,SSE,159,8.0,11.0,81,0.00,,,0.00,Wunderground v.1.15,2013-05-31 05:30:00,
2013-05-31 00:40:00,77.3,71.0,29.70,SSE,159,8.0,11.0,81,0.00,,,0.00,Wunderground v.1.15,2013-05-31 05:40:00,
2013-05-31 00:51:00,77.3,71.4,29.70,SSE,165,6.0,11.0,82,0.00,,,0.00,Wunderground v.1.15,2013-05-31 05:51:00,
2013-05-31 01:00:00,77.2,71.3,29.70,SSE,166,6.0,6.0,82,0.00,,,0.00,Wunderground v.1.15,2013-05-31 06:00:00,
2013-05-31 01:10:00,77.1,71.5,29.71,SSE,161,7.0,11.0,83,0.00,,,0.00,Wunderground v.1.15,2013-05-31 06:10:00,
2013-05-31 01:20:00,77.0,71.4,29.71,SSE,164,5.0,11.0,83,0.00,,,0.00,Wunderground v.1.15,2013-05-31 06:20:00,
2013-05-31 01:30:00,77.2,71.6,29.71,SSE,156,6.0,11.0,83,0.00,,,0.00,Wunderground v.1.15,2013-05-31 06:30:00,
2013-05-31 01:40:00,77.5,71.9,29.71,SSE,164,6.0,6.0,83,0.00,,,0.00,Wunderground v.1.15,2013-05-31 06:40:00,
2013-05-31 01:50:00,77.5,71.9,29.71,SSE,159,8.0,11.0,83,0.00,,,0.00,Wunderground v.1.15,2013-05-31 06:50:00,
2013-05-31 02:00:00,77.6,71.7,29.71,SSE,168,10.0,10.0,82,0.00,,,0.00,Wunderground v.1.15,2013-05-31 07:00:00,
2013-05-31 02:10:00,77.4,71.8,29.71,SSE,163,9.0,11.0,83,0.00,,,0.00,Wunderground v.1.15,2013-05-31 07:10:00,
2013-05-31 02:20:00,77.1,71.5,29.71,SSE,167,8.0,8.0,83,0.00,,,0.00,Wunderground v.1.15,2013-05-31 07:20:00,
2013-05-31 02:30:00,76.9,71.7,29.71,SSE,168,8.0,8.0,84,0.00,,,0.00,Wunderground v.1.15,2013-05-31 07:30:00,
2013-05-31 02:40:00,76.7,71.5,29.70,SSE,161,7.0,7.0,84,0.00,,,0.00,Wunderground v.1.15,2013-05-31 07:40:00,
2013-05-31 02:50:00,76.3,71.5,29.70,SSE,161,7.0,7.0,85,0.00,,,0.00,Wunderground v.1.15,2013-05-31 07:50:00,
2013-05-31 03:00:00,75.9,71.1,29.70,SSE,163,6.0,11.0,85,0.00,,,0.00,Wunderground v.1.15,2013-05-31 08:00:00,
2013-05-31 03:10:00,75.5,71.4,29.70,SSE,162,4.0,4.0,87,0.00,,,0.00,Wunderground v.1.15,2013-05-31 08:10:00,
2013-05-31 03:20:00,75.2,71.1,29.70,SSE,162,1.0,11.0,87,0.00,,,0.00,Wunderground v.1.15,2013-05-31 08:20:00,
2013-05-31 03:30:00,74.8,71.0,29.70,SSE,163,0.0,11.0,88,0.00,,,0.00,Wunderground v.1.15,2013-05-31 08:30:00,
2013-05-31 03:40:00,74.6,71.1,29.70,SSE,162,2.0,2.0,89,0.00,,,0.00,Wunderground v.1.15,2013-05-31 08:40:00,
2013-05-31 03:50:00,74.8,71.3,29.70,SSE,162,4.0,4.0,89,0.00,,,0.00,Wunderground v.1.15,2013-05-31 08:50:00,
2013-05-31 04:00:00,75.0,71.2,29.69,SSE,162,2.0,11.0,88,0.00,,,0.00,Wunderground v.1.15,2013-05-31 09:00:00,
2013-05-31 04:10:00,75.3,71.5,29.70,SSE,162,5.0,5.0,88,0.00,,,0.00,Wunderground v.1.15,2013-05-31 09:10:00,
2013-05-31 04:20:00,75.3,71.5,29.70,SSE,162,3.0,11.0,88,0.00,,,0.00,Wunderground v.1.15,2013-05-31 09:20:00,
2013-05-31 04:30:00,75.1,71.3,29.70,SSE,163,3.0,11.0,88,0.00,,,0.00,Wunderground v.1.15,2013-05-31 09:30:00,
2013-05-31 04:40:00,75.1,71.3,29.70,SSE,165,1.0,11.0,88,0.00,,,0.00,Wunderground v.1.15,2013-05-31 09:40:00,
2013-05-31 04:50:00,75.4,71.6,29.70,SSE,166,2.0,11.0,88,0.00,,,0.00,Wunderground v.1.15,2013-05-31 09:50:00,
2013-05-31 05:00:00,75.7,71.6,29.69,SSE,160,4.0,11.0,87,0.00,,,0.00,Wunderground v.1.15,2013-05-31 10:00:00,
2013-05-31 05:10:00,75.8,71.7,29.70,South,173,6.0,11.0,87,0.00,,,0.00,Wunderground v.1.15,2013-05-31 10:10:00,
2013-05-31 05:20:00,76.2,71.7,29.70,South,169,7.0,7.0,86,0.00,,,0.00,Wunderground v.1.15,2013-05-31 10:20:00,
2013-05-31 05:30:00,76.5,71.7,29.70,South,182,8.0,8.0,85,0.00,,,0.00,Wunderground v.1.15,2013-05-31 10:30:00,
2013-05-31 05:40:00,76.6,71.4,29.70,South,182,7.0,7.0,84,0.00,,,0.00,Wunderground v.1.15,2013-05-31 10:40:00,
2013-05-31 05:50:00,76.7,71.5,29.70,SSE,159,6.0,11.0,84,0.00,,,0.00,Wunderground v.1.15,2013-05-31 10:50:00,
2013-05-31 06:00:00,76.8,71.2,29.70,South,182,8.0,8.0,83,0.00,,,0.00,Wunderground v.1.15,2013-05-31 11:00:00,
2013-05-31 06:10:00,76.9,71.3,29.70,South,188,9.0,11.0,83,0.00,,,0.00,Wunderground v.1.15,2013-05-31 11:10:00,
2013-05-31 06:20:00,76.8,71.2,29.70,SSW,202,8.0,8.0,83,0.00,,,0.00,Wunderground v.1.15,2013-05-31 11:20:00,
2013-05-31 06:30:00,76.8,71.2,29.71,South,188,8.0,11.0,83,0.00,,,0.00,Wunderground v.1.15,2013-05-31 11:30:00,
2013-05-31 06:40:00,76.8,71.2,29.71,South,184,6.0,6.0,83,0.00,,,0.00,Wunderground v.1.15,2013-05-31 11:40:00,
2013-05-31 06:50:00,76.8,71.2,29.71,South,188,7.0,7.0,83,0.00,,,0.00,Wunderground v.1.15,2013-05-31 11:50:00,
2013-05-31 07:00:00,76.7,71.1,29.72,South,172,7.0,7.0,83,0.00,,,0.00,Wunderground v.1.15,2013-05-31 12:00:00,
2013-05-31 07:10:00,76.8,70.9,29.73,South,183,7.0,13.0,82,0.00,,,0.00,Wunderground v.1.15,2013-05-31 12:10:00,
2013-05-31 07:20:00,76.9,71.0,29.73,South,170,8.0,11.0,82,0.00,,,0.00,Wunderground v.1.15,2013-05-31 12:20:00,
2013-05-31 07:30:00,76.8,70.9,29.73,South,176,8.0,8.0,82,0.00,,,0.00,Wunderground v.1.15,2013-05-31 12:30:00,
2013-05-31 07:40:00,76.9,71.0,29.73,South,175,6.0,11.0,82,0.00,,,0.00,Wunderground v.1.15,2013-05-31 12:40:00,
2013-05-31 07:50:00,77.0,71.1,29.73,South,189,6.0,11.0,82,0.00,,,0.00,Wunderground v.1.15,2013-05-31 12:50:00,
2013-05-31 08:00:00,77.1,71.2,29.74,South,178,8.0,14.0,82,0.00,,,0.00,Wunderground v.1.15,2013-05-31 13:00:00,
2013-05-31 08:10:00,77.1,71.2,29.74,South,178,9.0,11.0,82,0.00,,,0.00,Wunderground v.1.15,2013-05-31 13:10:00,
2013-05-31 08:20:00,77.3,71.7,29.74,South,169,7.0,11.0,83,0.00,,,0.00,Wunderground v.1.15,2013-05-31 13:20:00,
2013-05-31 08:30:00,77.5,71.6,29.74,South,169,7.0,13.0,82,0.00,,,0.00,Wunderground v.1.15,2013-05-31 13:30:00,
2013-05-31 08:40:00,77.7,71.8,29.74,South,181,7.0,13.0,82,0.00,,,0.00,Wunderground v.1.15,2013-05-31 13:40:00,
2013-05-31 08:50:00,78.1,71.8,29.74,South,184,7.0,7.0,81,0.00,,,0.00,Wunderground v.1.15,2013-05-31 13:50:00,
2013-05-31 09:00:00,78.5,72.2,29.74,South,182,6.0,6.0,81,0.00,,,0.00,Wunderground v.1.15,2013-05-31 14:00:00,
2013-05-31 09:10:00,79.0,72.3,29.74,South,180,6.0,11.0,80,0.00,,,0.00,Wunderground v.1.15,2013-05-31 14:10:00,
2013-05-31 09:20:00,79.6,72.5,29.74,South,175,7.0,7.0,79,0.00,,,0.00,Wunderground v.1.15,2013-05-31 14:20:00,
2013-05-31 09:30:00,79.9,72.4,29.74,SSW,197,7.0,7.0,78,0.00,,,0.00,Wunderground v.1.15,2013-05-31 14:30:00,
2013-05-31 09:40:00,80.7,73.2,29.74,South,175,5.0,11.0,78,0.00,,,0.00,Wunderground v.1.15,2013-05-31 14:40:00,
2013-05-31 09:50:00,82.1,72.6,29.74,SSE,167,11.0,13.0,73,0.00,,,0.00,Wunderground v.1.15,2013-05-31 14:50:00,
2013-05-31 10:00:00,82.3,72.8,29.74,SSW,206,8.0,8.0,73,0.00,,,0.00,Wunderground v.1.15,2013-05-31 15:00:00,
2013-05-31 10:10:00,82.6,72.7,29.74,SSW,194,9.0,9.0,72,0.00,,,0.00,Wunderground v.1.15,2013-05-31 15:10:00,
2013-05-31 10:20:00,83.2,72.8,29.74,South,172,9.0,9.0,71,0.00,,,0.00,Wunderground v.1.15,2013-05-31 15:20:00,
2013-05-31 10:30:00,83.6,72.3,29.74,SSE,161,10.0,10.0,69,0.00,,,0.00,Wunderground v.1.15,2013-05-31 15:30:00,
2013-05-31 10:40:00,84.2,72.5,29.73,South,184,10.0,11.0,68,0.00,,,0.00,Wunderground v.1.15,2013-05-31 15:40:00,
2013-05-31 10:50:00,84.8,73.1,29.73,SSW,204,9.0,9.0,68,0.00,,,0.00,Wunderground v.1.15,2013-05-31 15:50:00,
2013-05-31 11:00:00,85.0,72.8,29.73,South,171,9.0,18.0,67,0.00,,,0.00,Wunderground v.1.15,2013-05-31 16:00:00,
2013-05-31 11:10:00,85.2,72.6,29.73,South,177,10.0,10.0,66,0.00,,,0.00,Wunderground v.1.15,2013-05-31 16:10:00,
2013-05-31 11:20:00,85.8,72.2,29.73,South,173,8.0,11.0,64,0.00,,,0.00,Wunderground v.1.15,2013-05-31 16:20:00,
2013-05-31 11:30:00,86.4,72.8,29.73,South,180,9.0,15.0,64,0.00,,,0.00,Wunderground v.1.15,2013-05-31 16:30:00,
2013-05-31 11:40:00,86.6,73.0,29.72,South,191,10.0,14.0,64,0.00,,,0.00,Wunderground v.1.15,2013-05-31 16:40:00,
2013-05-31 11:50:00,87.0,73.3,29.73,SSE,159,12.0,12.0,64,0.00,,,0.00,Wunderground v.1.15,2013-05-31 16:50:00,
2013-05-31 12:00:00,87.5,72.9,29.72,SSE,163,11.0,13.0,62,0.00,,,0.00,Wunderground v.1.15,2013-05-31 17:00:00,
2013-05-31 12:10:00,87.5,72.9,29.72,SSW,192,12.0,12.0,62,0.00,,,0.00,Wunderground v.1.15,2013-05-31 17:10:00,
2013-05-31 12:20:00,87.6,73.4,29.72,South,177,11.0,11.0,63,0.00,,,0.00,Wunderground v.1.15,2013-05-31 17:20:00,
2013-05-31 12:30:00,88.1,73.0,29.72,SSE,167,9.0,13.0,61,0.00,,,0.00,Wunderground v.1.15,2013-05-31 17:30:00,
2013-05-31 12:40:00,87.8,73.2,29.72,SSE,166,11.0,11.0,62,0.00,,,0.00,Wunderground v.1.15,2013-05-31 17:40:00,
2013-05-31 12:50:00,88.2,73.5,29.72,South,174,11.0,11.0,62,0.00,,,0.00,Wunderground v.1.15,2013-05-31 17:50:00,
2013-05-31 13:00:00,88.3,73.1,29.70,SSE,147,12.0,14.0,61,0.00,,,0.00,Wunderground v.1.15,2013-05-31 18:00:00,
2013-05-31 13:10:00,88.6,73.4,29.70,SSE,165,12.0,12.0,61,0.00,,,0.00,Wunderground v.1.15,2013-05-31 18:10:00,
2013-05-31 13:20:00,88.8,73.6,29.69,SSE,168,14.0,14.0,61,0.00,,,0.00,Wunderground v.1.15,2013-05-31 18:20:00,
2013-05-31 13:30:00,89.4,73.2,29.70,South,184,12.0,12.0,59,0.00,,,0.00,Wunderground v.1.15,2013-05-31 18:30:00,
2013-05-31 13:40:00,89.9,73.7,29.69,South,169,10.0,10.0,59,0.00,,,0.00,Wunderground v.1.15,2013-05-31 18:40:00,
2013-05-31 13:50:00,90.5,73.7,29.69,SSE,165,12.0,12.0,58,0.00,,,0.00,Wunderground v.1.15,2013-05-31 18:50:00,
2013-05-31 14:00:00,90.8,74.0,29.69,South,173,12.0,12.0,58,0.00,,,0.00,Wunderground v.1.15,2013-05-31 19:00:00,
2013-05-31 14:10:00,91.1,73.7,29.68,South,175,11.0,11.0,57,0.00,,,0.00,Wunderground v.1.15,2013-05-31 19:10:00,
2013-05-31 14:20:00,91.1,74.3,29.68,SSE,161,9.0,9.0,58,0.00,,,0.00,Wunderground v.1.15,2013-05-31 19:20:00,
2013-05-31 14:30:00,91.7,73.8,29.67,SSW,193,9.0,9.0,56,0.00,,,0.00,Wunderground v.1.15,2013-05-31 19:30:00,
2013-05-31 14:40:00,92.0,73.5,29.66,South,176,11.0,14.0,55,0.00,,,0.00,Wunderground v.1.15,2013-05-31 19:40:00,
2013-05-31 14:50:00,92.4,73.9,29.66,SSE,155,12.0,14.0,55,0.00,,,0.00,Wunderground v.1.15,2013-05-31 19:50:00,
2013-05-31 15:00:00,92.7,73.1,29.66,SW,217,12.0,12.0,53,0.00,,,0.00,Wunderground v.1.15,2013-05-31 20:00:00,
2013-05-31 15:10:00,93.1,74.0,29.65,SSE,147,9.0,11.0,54,0.00,,,0.00,Wunderground v.1.15,2013-05-31 20:10:00,
2013-05-31 15:20:00,93.4,73.7,29.65,South,186,11.0,12.0,53,0.00,,,0.00,Wunderground v.1.15,2013-05-31 20:20:00,
2013-05-31 15:30:00,93.4,73.1,29.65,South,169,12.0,12.0,52,0.00,,,0.00,Wunderground v.1.15,2013-05-31 20:30:00,
2013-05-31 15:40:00,93.2,73.5,29.64,SSE,167,12.0,12.0,53,0.00,,,0.00,Wunderground v.1.15,2013-05-31 20:40:00,
2013-05-31 15:50:00,93.2,74.1,29.64,SSE,168,12.0,12.0,54,0.00,,,0.00,Wunderground v.1.15,2013-05-31 20:50:00,
2013-05-31 16:00:00,93.4,74.3,29.63,South,171,12.0,14.0,54,0.00,,,0.00,Wunderground v.1.15,2013-05-31 21:00:00,
2013-05-31 16:10:00,93.2,74.1,29.63,SSE,155,14.0,20.0,54,0.00,,,0.00,Wunderground v.1.15,2013-05-31 21:10:00,
2013-05-31 16:20:00,93.5,73.8,29.62,SSE,157,15.0,18.0,53,0.00,,,0.00,Wunderground v.1.15,2013-05-31 21:20:00,
2013-05-31 16:30:00,93.3,74.2,29.62,SSE,165,15.0,15.0,54,0.00,,,0.00,Wunderground v.1.15,2013-05-31 21:30:00,
2013-05-31 16:40:00,93.3,74.2,29.61,SSE,159,14.0,14.0,54,0.00,,,0.00,Wunderground v.1.15,2013-05-31 21:40:00,
2013-05-31 16:50:00,93.2,74.1,29.61,South,175,15.0,15.0,54,0.00,,,0.00,Wunderground v.1.15,2013-05-31 21:50:00,
2013-05-31 17:00:00,93.3,74.7,29.61,SE,146,12.0,13.0,55,0.00,,,0.00,Wunderground v.1.15,2013-05-31 22:00:00,
2013-05-31 17:10:00,93.3,75.3,29.61,SSE,150,13.0,13.0,56,0.00,,,0.00,Wunderground v.1.15,2013-05-31 22:10:00,
2013-05-31 17:20:00,93.1,74.5,29.60,SSE,168,14.0,14.0,55,0.00,,,0.00,Wunderground v.1.15,2013-05-31 22:20:00,
2013-05-31 17:30:00,93.3,74.2,29.60,South,170,14.0,14.0,54,0.00,,,0.00,Wunderground v.1.15,2013-05-31 22:30:00,
2013-05-31 17:40:00,93.3,74.2,29.60,South,172,11.0,12.0,54,0.00,,,0.00,Wunderground v.1.15,2013-05-31 22:40:00,
2013-05-31 17:50:00,93.0,73.9,29.60,South,179,14.0,16.0,54,0.00,,,0.00,Wunderground v.1.15,2013-05-31 22:50:00,
2013-05-31 18:00:00,93.3,74.2,29.60,SSE,160,13.0,13.0,54,0.00,,,0.00,Wunderground v.1.15,2013-05-31 23:00:00,
2013-05-31 18:10:00,93.2,74.1,29.60,SSE,165,14.0,14.0,54,0.00,,,0.00,Wunderground v.1.15,2013-05-31 23:10:00,
2013-05-31 18:20:00,93.0,73.9,29.59,SSE,164,13.0,13.0,54,0.00,,,0.00,Wunderground v.1.15,2013-05-31 23:20:00,
2013-05-31 18:30:00,92.5,74.0,29.59,SSE,168,14.0,14.0,55,0.00,,,0.00,Wunderground v.1.15,2013-05-31 23:30:00,
2013-05-31 18:40:00,92.4,73.9,29.60,South,174,14.0,14.0,55,0.00,,,0.00,Wunderground v.1.15,2013-05-31 23:40:00,
2013-05-31 18:50:00,92.2,73.7,29.60,South,171,11.0,13.0,55,0.00,,,0.00,Wunderground v.1.15,2013-05-31 23:50:00,
2013-05-31 19:00:00,92.0,73.5,29.60,South,175,11.0,11.0,55,0.00,,,0.00,Wunderground v.1.15,2013-06-01 00:00:00,
2013-05-31 19:10:00,91.6,73.7,29.60,South,173,10.0,10.0,56,0.00,,,0.00,Wunderground v.1.15,2013-06-01 00:10:00,
2013-05-31 19:20:00,91.3,73.9,29.60,South,175,7.0,11.0,57,0.00,,,0.00,Wunderground v.1.15,2013-06-01 00:20:00,
2013-05-31 19:30:00,90.8,74.0,29.61,SSE,167,10.0,10.0,58,0.00,,,0.00,Wunderground v.1.15,2013-06-01 00:30:00,
2013-05-31 19:40:00,90.3,73.5,29.61,SSE,167,10.0,10.0,58,0.00,,,0.00,Wunderground v.1.15,2013-06-01 00:40:00,
2013-05-31 19:50:00,89.8,73.0,29.61,South,182,9.0,9.0,58,0.00,,,0.00,Wunderground v.1.15,2013-06-01 00:50:00,
2013-05-31 20:00:00,89.3,73.1,29.61,SSE,160,7.0,11.0,59,0.00,,,0.00,Wunderground v.1.15,2013-06-01 01:00:00,
2013-05-31 20:10:00,88.9,73.2,29.61,SSE,161,8.0,13.0,60,0.00,,,0.00,Wunderground v.1.15,2013-06-01 01:10:00,
2013-05-31 20:20:00,88.7,73.0,29.61,South,171,9.0,9.0,60,0.00,,,0.00,Wunderground v.1.15,2013-06-01 01:20:00,
2013-05-31 20:30:00,88.1,73.0,29.61,South,183,8.0,11.0,61,0.00,,,0.00,Wunderground v.1.15,2013-06-01 01:30:00,
2013-05-31 20:40:00,87.8,73.2,29.61,South,176,8.0,8.0,62,0.00,,,0.00,Wunderground v.1.15,2013-06-01 01:40:00,
2013-05-31 20:50:00,87.3,73.2,29.62,South,173,6.0,11.0,63,0.00,,,0.00,Wunderground v.1.15,2013-06-01 01:50:00,
2013-05-31 21:00:00,86.8,73.2,29.61,SSE,167,7.0,11.0,64,0.00,,,0.00,Wunderground v.1.15,2013-06-01 02:00:00,
2013-05-31 21:10:00,86.5,72.9,29.61,South,175,7.0,11.0,64,0.00,,,0.00,Wunderground v.1.15,2013-06-01 02:10:00,
2013-05-31 21:20:00,86.3,73.1,29.62,SSE,161,8.0,11.0,65,0.00,,,0.00,Wunderground v.1.15,2013-06-01 02:20:00,
2013-05-31 21:30:00,85.9,73.2,29.61,SSE,150,7.0,7.0,66,0.00,,,0.00,Wunderground v.1.15,2013-06-01 02:30:00,
2013-05-31 21:40:00,85.3,73.5,29.61,SSE,161,6.0,11.0,68,0.00,,,0.00,Wunderground v.1.15,2013-06-01 02:40:00,
2013-05-31 21:50:00,84.9,73.6,29.62,SSE,161,6.0,11.0,69,0.00,,,0.00,Wunderground v.1.15,2013-06-01 02:50:00,
2013-05-31 22:00:00,84.9,73.6,29.62,South,183,10.0,10.0,69,0.00,,,0.00,Wunderground v.1.15,2013-06-01 03:00:00,
2013-05-31 22:10:00,84.8,73.9,29.62,SSE,164,10.0,10.0,70,0.00,,,0.00,Wunderground v.1.15,2013-06-01 03:10:00,
2013-05-31 22:20:00,84.4,73.5,29.62,SSE,155,8.0,11.0,70,0.00,,,0.00,Wunderground v.1.15,2013-06-01 03:20:00,
2013-05-31 22:30:00,84.1,73.7,29.62,SSE,147,10.0,10.0,71,0.00,,,0.00,Wunderground v.1.15,2013-06-01 03:30:00,
2013-05-31 22:40:00,83.8,73.4,29.62,SSE,148,8.0,8.0,71,0.00,,,0.00,Wunderground v.1.15,2013-06-01 03:40:00,
2013-05-31 22:50:00,83.4,73.4,29.62,SSE,168,9.0,11.0,72,0.00,,,0.00,Wunderground v.1.15,2013-06-01 03:50:00,
2013-05-31 23:00:00,83.2,73.2,29.62,SSE,151,9.0,9.0,72,0.00,,,0.00,Wunderground v.1.15,2013-06-01 04:00:00,
2013-05-31 23:10:00,83.0,73.4,29.62,SSE,157,9.0,11.0,73,0.00,,,0.00,Wunderground v.1.15,2013-06-01 04:10:00,
2013-05-31 23:20:00,83.1,73.1,29.62,South,173,10.0,10.0,72,0.00,,,0.00,Wunderground v.1.15,2013-06-01 04:20:00,
2013-05-31 23:30:00,82.7,73.2,29.62,SSE,168,9.0,11.0,73,0.00,,,0.00,Wunderground v.1.15,2013-06-01 04:30:00,
2013-05-31 23:40:00,82.6,72.7,29.61,South,169,10.0,11.0,72,0.00,,,0.00,Wunderground v.1.15,2013-06-01 04:40:00,
2013-05-31 23:50:00,82.4,72.5,29.61,South,169,10.0,11.0,72,0.00,,,0.00,Wunderground v.1.15,2013-06-01 04:50:00,